Pagina principale
METAR-TAF:

METAR-TAF

Aeroporti :

Tortolì, Italia

Capo Bellavista

latitudine: 39-56N, longitudine: 009-43E, altezza: 138 m

Osservazione

Il bollettino è stato emesso 44 minuti fa, alle 12:55 UTC
Vento 8 kt da ovest
Temperature 26°C
Umidità 17%
Pressione 1013 hPa
Visibilità 10 km o più
nessuna nube inferiore a 1500 m e nessun cumulonembo

METAR: LIEB 191255Z 27008KT CAVOK 26/M01 Q1013 RMK SKC QUK 2 QUL 0 VIS MAR 30 KM MON LIB VIS MIN 9999

Ora: 15:39 (13:39 UTC)


TAF: mancante

Osservazioni e previsioni meteorologiche di più di 4000 aeroporti (messaggi METAR e TAF).

Le stazioni disponibili sono rappresentate dai dischi gialli e rossi sulla carta.

Puntare il mouse per vedere il nome della stazione.

Clicca sopra per visualizzare le osservazioni e previsioni meteorologiche.

Per cambiare la mappa : fare clic sui pulsanti verdi con una croce nera per ingrandire, il pulsante verde con un trattino per diminuire, o sulla freccia verde per le mappe adiacenti.


METAR-TAF: